Tracking 19286 objects as of 18-Nov-2018
HD Live streaming from Space Station
objects crossing your sky now

COSMOS 1300

Track COSMOS 1300 now!
10-day predictions
COSMOS 1300 is classified as:


NORAD ID: 12785
Int'l Code: 1981-082A
Perigee: 520.6 km
Apogee: 521.7 km
Inclination: 82.5 °
Period: 94.9 minutes
Semi major axis: 6892 km
RCS: 5.912 m2 (large)
Launch date: August 24, 1981
Source: Commonwealth of Independent States (former USSR) (CIS)
Launch site: PLESETSK MISSILE AND SPACE COMPLEX (PKMTR)
aabbcc
Your satellite tracking list
Your tracking list is empty




NASA's NSSDC Master Catalog

Two Line Element Set (TLE):
1 12785U 81082A   18322.46128296  .00000735  00000-0  35309-4 0  9995
2 12785  82.5025 279.6856 0000759 124.8017  15.3281 15.17291285 30570
Source of the keplerian elements: AFSPC